Shelbyville, IN

2:54 AM EDT on June 26, 2017 (GMT -0400)
Shelbyville Municipal

Weather History for KGEZ - November, 2012

Change the Weather History Date:

Thursday, November 1, 2012

  Actual Average Record
Temperature  
Mean Temperature 43 °F 49 °F  
Max Temperature 55 °F 60 °F 82 °F (2016)
Min Temperature 31 °F 39 °F 29 °F (2010)
Degree Days  
Heating Degree Days 22 16  
Month to date heating degree days 22 16  
Since 1 July heating degree days 471 451  
Cooling Degree Days 0 0  
Month to date cooling degree days 0 0  
Year to date cooling degree days 1417 913  
Moisture  
Dew Point 26 °F    
Average Humidity 51    
Maximum Humidity 75    
Minimum Humidity 26    
Precipitation  
Precipitation 0.00 in 0.14 in 0.39 in (2003)
Month to date precipitation 0.00 0.14  
Year to date precipitation 25.08 36.70  
Sea Level Pressure  
Sea Level Pressure 29.86 in    
Wind  
Wind Speed 8 mph (West)    
Max Wind Speed 20 mph    
Max Gust Speed 24 mph    
Visibility 10 miles    
Events      
T = Trace of Precipitation, MM = Missing Value Source: NWS Daily Summary

Daily Weather History Graph

Daily Weather History Graph

Search for Another Location

Airport or City:

Trip Planner

Search our weather history database for the weather conditions in past years. The results will help you decide how hot, cold, wet, or windy it might be!

Date:

Astronomy

Nov. 01, 2012 Rise Set
Actual Time 8:12 AM EDT 6:40 PM EDT
Civil Twilight 7:44 AM EDT 7:08 PM EDT
Nautical Twilight 7:12 AM EDT 7:40 PM EDT
Astronomical Twilight 6:40 AM EDT 8:11 PM EDT
Moon 8:38 PM EDT (11/1) 10:43 AM EDT (11/1)
Length of Visible Light 11h 24m
Length of Day
10h 28m
Waning Gibbous, 93% of the Moon is Illuminated
Nov 1
Waning Gibbous
Nov 6
Last Quarter
Nov 13
New
Nov 20
First Quarter
Nov 28
Full

Hourly Weather History & Observations

Time (EDT) Temp. Windchill Dew Point Humidity Pressure Visibility Wind Dir Wind Speed Gust Speed Precip Events Conditions
12:53 AM 43.0 °F 38.2 °F 34.0 °F 71% 29.83 in 10.0 mi West 8.1 mph - N/A   Overcast
1:53 AM 43.0 °F 38.8 °F 32.0 °F 65% 29.83 in 10.0 mi West 6.9 mph - N/A   Overcast
2:53 AM 43.0 °F 38.2 °F 30.0 °F 60% 29.83 in 10.0 mi West 8.1 mph - N/A   Overcast
4:53 AM 36.0 °F 31.1 °F 27.0 °F 70% 29.84 in 10.0 mi West 5.8 mph - N/A   Clear
5:53 AM 35.1 °F 29.3 °F 26.1 °F 70% 29.85 in 10.0 mi West 6.9 mph - N/A   Clear
7:53 AM 32.0 °F 25.6 °F 25.0 °F 75% 29.86 in 10.0 mi WSW 6.9 mph - N/A   Clear
9:53 AM 35.1 °F 26.9 °F 24.1 °F 64% 29.90 in 10.0 mi West 11.5 mph - N/A   Overcast
10:53 AM 39.9 °F 33.9 °F 24.1 °F 53% 29.89 in 10.0 mi West 9.2 mph - N/A   Scattered Clouds
11:53 AM 44.1 °F 38.6 °F 25.0 °F 47% 29.90 in 10.0 mi West 10.4 mph - N/A   Clear
12:53 PM 48.0 °F - 21.0 °F 34% 29.89 in 10.0 mi WNW 11.5 mph 19.6 mph N/A   Clear
1:53 PM 51.1 °F - 21.0 °F 31% 29.87 in 10.0 mi West 9.2 mph - N/A   Clear
2:53 PM 53.1 °F - 19.9 °F 27% 29.85 in 10.0 mi West 15.0 mph - N/A   Clear
3:53 PM 52.0 °F - 21.9 °F 31% 29.84 in 10.0 mi West 13.8 mph 21.9 mph N/A   Scattered Clouds
4:53 PM 54.0 °F - 26.1 °F 34% 29.84 in 10.0 mi West 13.8 mph - N/A   Mostly Cloudy
5:53 PM 52.0 °F - 25.0 °F 35% 29.83 in 10.0 mi West 12.7 mph - N/A   Overcast
6:53 PM 50.0 °F - 26.1 °F 39% 29.84 in 10.0 mi West 8.1 mph - N/A   Overcast
7:53 PM 48.9 °F - 27.0 °F 43% 29.85 in 10.0 mi WSW 5.8 mph - N/A   Overcast
8:53 PM 46.9 °F - 27.0 °F 46% 29.86 in 10.0 mi WSW 4.6 mph - N/A   Overcast
9:53 PM 45.0 °F 43.5 °F 28.0 °F 52% 29.86 in 10.0 mi WSW 3.5 mph - N/A   Overcast
10:53 PM 45.0 °F 42.6 °F 28.0 °F 52% 29.86 in 10.0 mi WSW 4.6 mph - N/A   Overcast
11:53 PM 46.0 °F - 28.0 °F 50% 29.85 in 10.0 mi Calm Calm - N/A   Overcast